Location: Abraham Lincoln Continuation High School
(33.9711°N, 117.3662°W)
Time: 00:15:50
(UTC+00:00)

Iridium 4 Rocket - Pass Details

Date: 21 January 2021
Orbit: 583 x 906 km, 86.9° (Epoch: 03 March)

Event Time Altitude Azimuth Distance (km) Brightness Sun altitude
Rises 14:08:50 0° 143° (SE) 3,326 7.8 -9.3°
Reaches altitude 10° 14:11:40 10° 128° (SE) 2,448 7.4 -8.8°
Maximum altitude 14:15:47 22° 80° (E) 1,822 6.4 -7.9°
Drops below altitude 10° 14:20:04 10° 32° (NNE) 2,564 6.4 -7.1°
Sets 14:23:05 0° 18° (NNE) 3,528 6.9 -6.5°
